Change the Weather History Date:

Saturday, April 5, 2014

  Actual Average Record
Temperature  
Mean Temperature 51 °F 51 °F  
Max Temperature 55 °F 60 °F 77 °F (1977)
Min Temperature 47 °F 42 °F 30 °F (1975)
Degree Days  
Heating Degree Days 14 14  
Month to date heating degree days 70 72  
Since 1 July heating degree days 3852 3652  
Cooling Degree Days 0 0  
Month to date cooling degree days 0 0  
Year to date cooling degree days 0 0  
Growing Degree Days 2 (Base 50)    
Moisture  
Dew Point 48 °F    
Average Humidity 85    
Maximum Humidity 93    
Minimum Humidity 77    
Precipitation  
Precipitation 0.10 in 0.10 in 0.74 in (1991)
Month to date precipitation 0.35 0.51  
Year to date precipitation 15.69 12.73  
Sea Level Pressure  
Sea Level Pressure 30.08 in    
Wind  
Wind Speed 9 mph (South)    
Max Wind Speed 17 mph    
Max Gust Speed 25 mph    
Visibility 9 miles    
Events Rain    
T = Trace of Precipitation, MM = Missing Value Source: NWS Daily Summary

Daily Weather History Graph

Daily Weather History Graph

Search for Another Location

Airport or City:

Trip Planner

Search our weather history database for the weather conditions in past years. The results will help you decide how hot, cold, wet, or windy it might be!

Date:

Astronomy

Apr. 05, 2014 Rise Set
Actual Time 6:42 AM PDT 7:44 PM PDT
Civil Twilight 6:12 AM PDT 8:14 PM PDT
Nautical Twilight 5:36 AM PDT 8:50 PM PDT
Astronomical Twilight 4:58 AM PDT 9:28 PM PDT
Moon 10:44 AM PDT (4/5) 1:08 AM PDT (4/5)
Length of Visible Light 14h 01m
Length of Day
13h 01m
Waxing Crescent, 35% of the Moon is Illuminated
Apr 5
Waxing Crescent
Apr 7
First Quarter
Apr 15
Full
Apr 22
Last Quarter
Apr 28
New

Hourly Weather History & Observations

Time (PDT) Temp. Dew Point Humidity Pressure Visibility Wind Dir Wind Speed Gust Speed Precip Events Conditions
12:53 AM 48.0 °F 44.1 °F 86% 30.01 in 10.0 mi SE 5.8 mph - N/A   Mostly Cloudy
1:53 AM 46.9 °F 44.1 °F 90% 30.01 in 10.0 mi SSE 6.9 mph - N/A   Mostly Cloudy
2:53 AM 48.0 °F 44.1 °F 86% 30.01 in 9.0 mi SSW 5.8 mph - 0.01 in Rain Light Rain
3:50 AM 48.2 °F 44.6 °F 87% 30.02 in 10.0 mi Calm Calm - 0.01 in   Light Drizzle
3:53 AM 48.0 °F 45.0 °F 89% 30.02 in 10.0 mi Variable 3.5 mph - 0.01 in   Light Drizzle
4:53 AM 48.0 °F 45.0 °F 89% 30.03 in 10.0 mi SE 3.5 mph - 0.00 in   Light Drizzle
5:18 AM 48.0 °F 46.0 °F 93% 30.02 in 10.0 mi SE 4.6 mph - 0.00 in   Light Drizzle
5:53 AM 48.9 °F 46.0 °F 90% 30.03 in 10.0 mi Calm Calm - 0.00 in   Light Drizzle
6:53 AM 48.9 °F 46.0 °F 90% 30.04 in 10.0 mi South 11.5 mph - 0.01 in   Light Drizzle
7:53 AM 48.9 °F 46.0 °F 90% 30.06 in 8.0 mi South 5.8 mph - 0.05 in Rain Light Rain
8:53 AM 50.0 °F 46.9 °F 89% 30.06 in 10.0 mi SSE 6.9 mph - 0.01 in   Overcast
9:53 AM 50.0 °F 48.0 °F 93% 30.07 in 10.0 mi South 11.5 mph - N/A   Overcast
10:38 AM 51.1 °F 48.9 °F 92% 30.09 in 8.0 mi SSW 10.4 mph - N/A   Overcast
10:53 AM 51.1 °F 48.9 °F 92% 30.09 in 7.0 mi SSW 10.4 mph - N/A   Overcast
11:05 AM 51.1 °F 48.9 °F 92% 30.10 in 2.0 mi SSW 8.1 mph - N/A   Overcast
11:12 AM 51.1 °F 48.9 °F 92% 30.09 in 2.0 mi South 6.9 mph - N/A   Overcast
11:17 AM 52.0 °F 50.0 °F 93% 30.09 in 3.0 mi South 9.2 mph - N/A   Overcast
11:25 AM 53.1 °F 50.0 °F 89% 30.10 in 3.0 mi SSW 10.4 mph - N/A   Overcast
11:53 AM 53.1 °F 48.9 °F 86% 30.10 in 3.0 mi SSW 11.5 mph - N/A   Overcast
12:53 PM 54.0 °F 48.9 °F 83% 30.10 in 10.0 mi SSW 6.9 mph - N/A   Overcast
1:53 PM 55.0 °F 48.0 °F 77% 30.10 in 10.0 mi South 10.4 mph - N/A   Overcast
2:53 PM 54.0 °F 48.9 °F 83% 30.09 in 10.0 mi South 8.1 mph - 0.01 in   Overcast
3:26 PM 54.0 °F 48.9 °F 83% 30.08 in 10.0 mi South 10.4 mph - 0.00 in Rain Light Rain
3:53 PM 54.0 °F 48.0 °F 80% 30.08 in 10.0 mi South 10.4 mph - 0.00 in   Overcast
4:53 PM 54.0 °F 48.9 °F 83% 30.09 in 10.0 mi SSW 15.0 mph 25.3 mph N/A   Overcast
5:14 PM 54.0 °F 50.0 °F 86% 30.09 in 10.0 mi South 15.0 mph - N/A   Overcast
5:53 PM 54.0 °F 50.0 °F 86% 30.09 in 10.0 mi South 10.4 mph - N/A   Overcast
6:33 PM 54.0 °F 50.0 °F 86% 30.09 in 7.0 mi South 12.7 mph - 0.00 in Rain Light Rain
6:53 PM 54.0 °F 50.0 °F 86% 30.09 in 10.0 mi South 9.2 mph - 0.00 in   Overcast
7:12 PM 54.0 °F 50.0 °F 86% 30.09 in 10.0 mi SSW 10.4 mph - N/A   Overcast
7:53 PM 54.0 °F 50.0 °F 86% 30.10 in 10.0 mi SSW 9.2 mph - N/A   Overcast
8:53 PM 54.0 °F 48.0 °F 80% 30.12 in 10.0 mi SW 8.1 mph - N/A   Overcast
9:53 PM 53.1 °F 46.9 °F 80% 30.13 in 10.0 mi SW 4.6 mph - N/A   Overcast
10:53 PM 53.1 °F 45.0 °F 74% 30.17 in 10.0 mi WSW 9.2 mph - 0.01 in Rain Light Rain
11:53 PM 51.1 °F 44.1 °F 77% 30.19 in 8.0 mi SW 8.1 mph - 0.01 in Rain Light Rain